Location: ???? ???? ?????
(31.2680°N, 31.7283°E)
Time: 19:29:27
(UTC+00:00)

Mugunghwa Rocket - Pass Details

Date: 13 July 2020
Orbit: 936 x 1372 km, 26.7° (Epoch: 05 August)

Event Time Altitude Azimuth Distance (km) Brightness Sun altitude
Rises 18:13:59 0° 240° (WSW) 3,579 7.3 -14.5°
Reaches altitude 10° 18:16:41 10° 233° (SW) 2,653 6.5 -14.9°
Maximum altitude 18:22:37 42° 164° (SSE) 1,366 4.4 -15.9°
Enters shadow 18:26:29 22° 107° (ESE) 2,057 5.2 -16.6°
